Overview Statistics Trail Chart Weather Telemetry Raw packets
 

This is the latest recevied weather packets stored in our database for station/object OK1TBM-13. If no packets are shown the sender has not sent any weather packets the latest 10 day(s).

<< 1 2 3 4 5 6 7 >>
Time Temp. Humidity Pressure Rain* Wind** Luminosity Snow
1788593701 15.56° C 88% 1016.9 hPa 0 mm - 173 W/m² -
1788593401 15.56° C 88% 1016.9 hPa 0 mm - 225 W/m² -
1788592819 15.56° C 89% 1016.9 hPa 0 mm - 163 W/m² -
1788592502 15.56° C 89% 1016.9 hPa 0 mm - 408 W/m² -
1788592202 15° C 92% 1016.9 hPa 0 mm - 216 W/m² -
1788591901 15° C 95% 1016.9 hPa 0 mm - 170 W/m² -
1788591601 14.44° C 95% 1016.6 hPa 0 mm - 136 W/m² -
1788590701 14.44° C 96% 1016.9 hPa 0 mm - 29 W/m² -
1788590102 14.44° C 96% 1016.6 hPa 0 mm - 107 W/m² -
1788588901 13.89° C 98% 1016.3 hPa 0 mm - 37 W/m² -
1788588607 13.89° C 96% 1016.3 hPa 0 mm - 29 W/m² -
1788588302 13.89° C 97% 1016.3 hPa 0 mm - 38 W/m² -
1788588002 13.89° C 95% 1016.3 hPa 0 mm - 27 W/m² -
1788587701 13.89° C 96% 1016.3 hPa 0 mm - 22 W/m² -
1788587401 13.89° C 97% 1015.9 hPa 0 mm - 13 W/m² -
1788587102 13.89° C 98% 1015.9 hPa 0 mm - 17 W/m² -
1788586802 13.89° C 97% 1016.3 hPa 0 mm - 54 W/m² -
1788586501 13.89° C 96% 1016.3 hPa 0 mm - 20 W/m² -
1788586201 13.89° C 96% 1016.3 hPa 0 mm - 30 W/m² -
1788585602 13.89° C 95% 1015.2 hPa 0 mm - 26 W/m² -
1788585301 14.44° C 94% 1014.9 hPa 0 mm - 27 W/m² -
1788585005 13.89° C 95% 1014.9 hPa 0 mm - 11 W/m² -
1788584700 14.44° C 95% 1014.9 hPa 1.27 mm - 7 W/m² -
1788584400 14.44° C 96% 1015.2 hPa 1.27 mm - 12 W/m² -
1788584101 14.44° C 96% 1015.2 hPa 1.27 mm - 6 W/m² -

* Rain latest hour (hover to see other rain measurements)
** Current wind speed in m/s (hover to see current wind gust speed)